カタログに戻る

SL-8 DEB

運用中VLEO
NORAD 6065·DEBRIS·🇷🇺 Russia

打ち上げ Jun 23, 1972 から Plesetsk Cosmodrome

Loading…

次のパス (今後24時間)

TLE

最新Source: Space-Track

元期: Sep 14, 2026, 07:17 UTC

1 06065U 72043D   26257.30385550  .00006814  00000-0  49075-3 0  9991
2 06065  74.0586   6.3378 0007673  34.3342 325.8342 15.04346642871253

AllMySatでSL-8 DEBをリアルタイム追跡

Download on the App Store